Wind_Speed
27 28 28 28 28 28 27 27 27 26 25 26 26 27 27 27 28 28 28 28 28 29 29 29 30 30 30 30 29 29 28 28 29 29 29 29 28 28 28 29 29 30 30
28 28 28 28 28 28 28 28 27 27 26 26 26 27 27 27 28 28 29 29 30 31 31 30 31 31 30 30 30 30 30 30 30 30 30 30 30 30 30 30 31 31 31
30 29 28 29 29 29 29 28 27 27 26 27 27 27 28 28 29 30 30 31 31 31 31 31 31 30 31 31 31 31 31 31 31 31 32 32 31 32 32 32 32 33 33
31 30 29 29 30 30 29 29 28 28 28 28 28 28 29 29 30 31 32 32 32 31 31 31 31 31 31 32 32 32 32 32 32 32 33 33 33 33 34 34 34 35 35
33 33 31 31 31 31 31 30 29 29 29 29 30 30 30 30 31 31 31 32 31 31 31 31 32 32 32 32 32 33 33 33 33 33 34 34 34 34 35 35 35 36 36
33 32 31 31 31 31 31 30 30 31 31 31 31 32 32 32 31 32 32 32 32 31 31 31 32 32 32 32 33 33 33 33 34 34 34 35 36 36 36 36 36 36 37
35 34 33 32 31 30 31 31 30 31 31 32 32 32 33 33 33 33 32 32 32 31 31 31 32 32 32 32 33 34 34 34 35 35 35 36 36 37 37 37 37 37 37
36 36 35 33 33 32 32 32 32 32 32 31 31 31 31 31 32 32 32 32 31 30 31 32 32 32 33 33 34 34 34 35 35 36 37 37 37 37 37 37 37 37 38
36 36 36 36 34 33 32 32 32 31 31 31 31 31 31 30 31 31 31 31 31 31 32 32 32 33 33 34 34 35 35 36 37 37 38 38 37 37 37 38 38 38 38
34 34 35 35 34 33 32 32 32 32 31 31 31 31 31 30 29 29 30 30 31 31 32 33 33 33 34 34 35 36 36 37 38 38 38 38 37 37 38 38 38 39 39
36 35 36 35 35 34 34 34 33 34 33 33 33 33 32 31 30 29 29 30 30 31 32 33 34 35 36 36 36 37 38 38 38 38 38 38 37 38 38 39 39 39 39
37 37 36 36 36 36 36 36 35 35 35 34 34 34 33 32 31 31 31 31 31 31 32 34 35 37 37 38 37 38 39 39 38 37 37 37 38 38 39 39 39 39 40
36 37 38 38 38 37 37 37 36 37 37 37 36 35 34 34 34 34 33 33 33 33 33 34 36 37 38 38 38 39 39 38 38 38 37 38 38 38 38 38 38 39 40
37 39 39 39 39 38 39 40 40 39 38 37 37 37 36 37 36 36 36 36 36 35 35 36 37 37 38 39 39 39 39 39 39 38 38 39 39 39 38 38 39 39 39
39 39 40 40 40 41 41 41 41 40 39 39 39 39 39 39 39 39 39 39 39 38 37 38 38 38 39 39 39 39 39 40 39 39 38 39 40 40 39 40 40 40 40
39 40 41 40 41 41 42 42 41 42 42 42 41 41 41 42 42 41 42 42 41 41 40 40 40 40 41 40 40 40 40 40 40 39 39 39 40 40 40 40 40 41 41
41 42 42 42 42 42 43 43 43 43 43 43 43 43 43 44 43 43 43 43 43 43 43 42 43 43 42 41 41 41 41 40 40 40 40 41 41 41 41 41 42 42 42
42 43 44 44 44 44 44 45 45 44 45 45 45 45 45 45 45 44 44 44 44 44 44 44 44 44 43 43 43 42 42 41 41 41 41 42 42 42 42 42 43 42 41
43 44 45 45 46 46 46 46 46 46 46 47 47 47 47 47 46 46 46 46 46 46 46 45 44 44 45 45 44 43 43 42 42 42 42 42 43 43 43 43 43 42 42
44 45 45 46 47 47 47 47 47 48 47 48 48 48 47 48 47 47 47 46 46 47 47 47 46 45 45 45 45 44 44 44 43 43 42 43 43 43 44 44 43 42 42
45 46 45 46 46 47 47 48 48 49 49 49 49 48 48 48 49 48 48 48 48 48 48 48 47 47 46 46 46 45 45 44 44 44 44 44 44 44 44 44 43 43 42
45 46 45 45 46 47 48 48 48 49 49 50 49 49 50 50 50 50 50 50 51 50 50 50 49 49 48 47 47 47 46 45 44 44 45 44 44 44 44 44 43 43 42
46 46 47 47 47 47 48 49 49 50 50 51 51 52 51 52 52 52 53 53 53 53 53 52 51 50 50 49 49 48 48 48 47 46 46 45 45 44 44 43 43 43 42
47 48 48 49 49 49 49 49 49 50 51 51 52 52 53 53 53 54 54 54 54 54 54 54 53 51 51 51 50 50 50 49 48 48 47 46 46 46 45 44 43 42 42
50 50 51 51 51 51 51 51 51 52 52 52 53 53 53 54 54 54 54 54 53 53 53 53 53 52 52 52 51 51 50 50 49 48 48 47 46 46 45 44 43 42 42
52 52 52 53 53 53 53 53 53 53 53 53 53 53 53 54 54 54 54 54 53 53 53 53 52 52 53 53 52 52 51 50 49 49 48 48 47 46 45 44 43 43 43
Wind_Direction
245 245 246 247 249 252 253 254 256 258 261 263 265 266 266 267 269 270 272 273 273 274 275 277 278 277 277 278 279 280 281 282 282 283 283 283 285 287 289 289 291 292 292
244 244 245 247 250 254 255 255 256 259 262 264 266 268 268 269 270 272 273 274 275 274 276 277 277 276 277 277 278 280 280 280 281 282 283 282 283 284 286 288 291 292 292
245 246 246 248 251 254 255 255 258 261 263 265 266 268 269 270 272 273 274 275 276 275 275 276 277 277 278 279 280 281 281 281 283 283 282 283 284 284 285 287 289 291 292
246 247 248 250 252 255 256 257 260 262 264 266 267 269 271 273 274 274 275 275 275 274 274 274 275 277 278 279 280 281 281 281 282 282 282 282 283 284 285 286 288 290 291
247 247 249 251 254 256 257 258 260 263 265 268 269 270 272 274 275 275 276 275 274 274 274 275 275 277 277 278 279 279 279 280 281 281 281 281 282 283 284 285 287 289 290
248 249 250 251 254 257 259 259 260 262 265 268 270 272 273 275 274 274 275 276 275 274 274 274 275 276 276 278 279 280 280 280 280 280 282 281 282 283 284 285 288 289 289
248 248 250 251 252 256 258 259 261 264 266 268 271 274 275 276 276 275 275 275 276 274 273 274 273 273 275 277 279 280 281 279 279 279 281 282 281 282 284 286 287 289 290
248 248 248 250 252 255 257 260 262 265 267 269 271 274 275 275 274 275 274 275 275 276 276 275 274 273 274 277 279 280 280 280 279 279 280 281 282 283 284 286 288 289 290
247 247 249 250 250 254 257 259 262 265 267 268 271 274 275 276 275 274 274 274 274 274 275 276 276 275 275 278 279 280 281 281 281 280 280 281 282 282 283 284 287 288 289
246 246 247 249 250 254 256 260 263 265 268 269 271 274 275 276 275 274 274 275 275 275 275 276 277 277 277 280 280 280 282 282 282 281 280 282 283 283 284 285 286 287 288
248 248 249 251 252 255 258 260 262 264 267 269 271 273 275 274 274 274 274 274 275 276 276 277 277 278 280 282 281 281 283 284 283 282 281 281 281 281 283 284 286 287 288
251 249 250 251 254 258 261 261 262 264 266 268 270 271 272 273 274 274 274 275 276 277 278 278 278 279 280 281 281 282 284 285 283 282 282 282 281 282 283 284 285 286 286
253 251 252 253 256 260 262 261 262 264 265 267 269 271 272 273 274 274 275 276 276 277 279 280 280 280 281 281 281 283 284 285 283 282 282 281 281 282 284 285 286 285 286
255 254 253 254 257 260 262 262 263 264 265 267 269 271 272 273 273 273 275 276 277 278 279 280 281 281 282 282 282 282 283 284 283 282 280 280 280 282 284 285 287 286 286
256 256 254 256 259 260 262 262 262 262 264 266 268 270 270 272 271 273 275 277 278 278 279 279 280 281 282 283 282 281 281 283 282 281 279 279 279 281 283 284 285 286 285
258 258 257 257 260 261 260 261 262 263 264 266 267 269 270 271 272 273 275 277 278 278 279 279 279 280 281 281 281 281 282 282 281 280 279 279 280 281 283 283 284 284 284
259 259 259 260 261 262 261 261 263 264 265 266 267 269 270 272 273 274 275 276 277 277 278 279 279 280 280 280 280 281 281 280 280 280 280 280 281 282 284 283 283 283 282
259 260 261 261 261 261 261 261 263 264 266 267 268 269 270 271 272 273 274 275 276 277 278 278 279 279 279 280 280 280 279 279 279 280 280 280 281 282 284 284 284 283 282
260 261 260 261 262 262 262 262 263 265 267 267 268 269 271 272 272 273 274 275 275 276 277 277 277 277 278 279 279 279 278 279 279 279 280 280 280 280 282 284 283 282 282
262 262 262 262 263 264 263 264 265 266 267 269 269 270 271 271 272 273 273 274 275 275 276 277 276 276 277 278 278 278 278 278 278 279 280 280 279 280 281 282 282 282 281
264 264 265 265 265 265 265 266 267 267 267 269 269 270 270 271 271 272 273 273 274 275 275 276 276 276 277 277 277 277 277 278 278 278 279 279 280 280 281 281 281 281 281
265 265 266 266 267 268 268 268 269 268 268 269 270 270 270 271 272 273 273 274 274 275 275 276 276 276 276 276 276 276 276 276 277 277 278 279 279 280 280 280 280 280 280
267 267 267 268 269 269 269 269 269 268 268 269 270 270 270 271 272 273 274 274 275 275 275 275 275 275 275 275 275 275 275 275 276 277 277 278 278 279 279 279 280 280 280
266 268 269 270 270 270 270 270 270 270 270 270 270 271 271 271 272 273 274 275 275 275 275 274 274 274 274 274 274 274 275 275 276 277 278 278 278 278 278 279 279 279 279
267 268 269 269 270 270 270 271 271 271 271 271 271 271 271 272 273 273 274 274 274 274 274 274 273 273 273 274 273 273 274 274 275 276 277 277 277 277 276 277 278 278 278
267 268 269 269 270 270 271 271 271 271 272 271 271 272 272 272 272 273 273 274 274 274 274 274 274 273 273 274 273 273 273 273 273 275 276 276 276 275 275 275 276 277 278
Height
5807 5809 5811 5813 5815 5816 5818 5819 5820 5821 5821 5822 5822 5822 5823 5823 5823 5823 5823 5823 5823 5823 5823 5823 5823 5823 5823 5823 5824 5824 5823 5823 5823 5822 5822 5821 5821 5820 5819 5818 5817 5816 5814
5801 5803 5805 5808 5809 5811 5812 5813 5814 5815 5816 5816 5816 5816 5817 5817 5817 5817 5817 5817 5817 5817 5817 5817 5817 5817 5817 5817 5817 5817 5817 5817 5816 5816 5815 5815 5814 5814 5813 5812 5810 5809 5807
5796 5798 5800 5802 5803 5805 5806 5807 5808 5809 5810 5810 5810 5811 5811 5811 5811 5810 5811 5810 5810 5810 5810 5810 5810 5810 5810 5810 5810 5810 5810 5810 5810 5809 5809 5808 5807 5807 5806 5805 5803 5802 5800
5789 5792 5794 5796 5797 5799 5800 5801 5802 5803 5804 5804 5804 5805 5805 5804 5804 5804 5803 5803 5803 5803 5803 5803 5803 5803 5804 5804 5804 5804 5803 5803 5802 5802 5801 5801 5800 5799 5798 5797 5796 5794 5793
5783 5785 5787 5789 5791 5792 5794 5795 5796 5797 5797 5797 5798 5798 5798 5797 5797 5796 5796 5795 5795 5795 5796 5796 5796 5796 5796 5796 5796 5796 5796 5795 5795 5794 5793 5793 5792 5791 5790 5789 5788 5786 5785
5776 5778 5780 5782 5784 5786 5787 5788 5789 5790 5790 5791 5791 5791 5791 5790 5789 5789 5788 5788 5788 5788 5788 5789 5789 5789 5789 5789 5788 5788 5788 5788 5787 5787 5785 5785 5784 5783 5782 5781 5780 5778 5777
5768 5771 5773 5775 5777 5779 5780 5781 5782 5783 5783 5783 5784 5784 5783 5782 5782 5781 5781 5781 5781 5781 5781 5781 5781 5781 5781 5781 5781 5780 5780 5779 5779 5778 5777 5777 5776 5775 5774 5773 5772 5770 5768
5760 5763 5765 5768 5770 5772 5773 5774 5775 5776 5776 5776 5776 5776 5776 5776 5775 5774 5774 5774 5773 5774 5774 5773 5773 5774 5773 5773 5772 5772 5771 5771 5770 5770 5769 5769 5768 5767 5766 5765 5763 5761 5760
5752 5755 5758 5760 5762 5764 5765 5766 5768 5768 5769 5769 5769 5769 5769 5769 5768 5768 5767 5767 5766 5766 5767 5766 5766 5766 5765 5765 5764 5763 5763 5762 5762 5761 5761 5760 5759 5758 5757 5756 5754 5752 5751
5744 5747 5749 5752 5755 5757 5758 5759 5760 5761 5761 5762 5762 5762 5762 5762 5762 5762 5761 5760 5760 5760 5759 5759 5758 5758 5757 5757 5756 5755 5755 5754 5752 5752 5752 5751 5750 5749 5748 5747 5745 5744 5742
5737 5739 5742 5745 5747 5749 5750 5751 5752 5753 5754 5754 5754 5754 5754 5754 5754 5755 5755 5754 5753 5753 5752 5752 5751 5751 5750 5749 5748 5747 5746 5745 5744 5743 5742 5741 5741 5740 5739 5737 5736 5735 5733
5730 5732 5734 5737 5739 5741 5742 5743 5744 5745 5746 5746 5746 5746 5746 5747 5747 5747 5747 5747 5746 5746 5745 5744 5743 5743 5742 5741 5740 5739 5737 5736 5735 5734 5733 5732 5732 5731 5729 5728 5727 5725 5724
5722 5724 5726 5729 5731 5732 5733 5735 5735 5736 5737 5738 5738 5738 5738 5738 5738 5738 5739 5739 5739 5739 5738 5737 5735 5735 5734 5733 5731 5730 5729 5727 5726 5725 5724 5723 5722 5721 5720 5719 5717 5716 5714
5714 5716 5718 5720 5722 5723 5724 5726 5726 5727 5728 5729 5729 5729 5729 5730 5730 5730 5730 5730 5730 5730 5730 5729 5727 5726 5725 5724 5723 5721 5720 5719 5717 5716 5715 5714 5713 5711 5710 5709 5708 5706 5704
5706 5707 5709 5711 5712 5714 5715 5716 5716 5717 5718 5719 5720 5720 5720 5720 5721 5721 5720 5720 5721 5721 5721 5720 5718 5717 5716 5714 5713 5712 5711 5709 5708 5706 5705 5704 5703 5702 5701 5699 5698 5696 5694
5697 5698 5700 5701 5702 5704 5705 5706 5706 5707 5708 5709 5710 5710 5710 5711 5711 5710 5710 5710 5710 5710 5710 5710 5709 5707 5706 5705 5703 5702 5701 5699 5698 5697 5696 5695 5694 5692 5691 5689 5687 5685 5683
5687 5688 5689 5691 5692 5693 5694 5695 5696 5697 5698 5698 5699 5700 5700 5700 5700 5700 5700 5700 5699 5699 5699 5700 5698 5697 5695 5695 5693 5692 5691 5689 5688 5687 5686 5684 5683 5682 5680 5678 5676 5674 5673
5676 5677 5678 5680 5681 5682 5683 5684 5685 5686 5687 5687 5688 5688 5689 5689 5689 5689 5689 5688 5688 5687 5687 5688 5687 5685 5684 5684 5683 5681 5680 5679 5678 5677 5675 5674 5672 5671 5669 5667 5665 5663 5662
5665 5666 5667 5668 5669 5670 5671 5672 5673 5674 5674 5675 5676 5676 5676 5676 5677 5676 5676 5676 5676 5675 5675 5675 5675 5674 5673 5672 5671 5670 5669 5668 5667 5666 5664 5663 5661 5659 5658 5656 5654 5652 5651
5653 5654 5655 5656 5657 5658 5658 5659 5660 5661 5662 5662 5663 5663 5663 5663 5664 5663 5664 5663 5663 5663 5662 5662 5662 5662 5661 5660 5659 5658 5657 5657 5656 5654 5653 5651 5650 5648 5646 5645 5643 5641 5640
5641 5642 5642 5643 5644 5645 5645 5646 5647 5648 5648 5649 5649 5650 5650 5650 5650 5650 5650 5650 5650 5649 5649 5648 5648 5648 5648 5647 5646 5646 5645 5644 5643 5642 5641 5639 5638 5637 5634 5632 5631 5629 5628
5628 5629 5630 5630 5631 5632 5632 5633 5633 5634 5635 5635 5636 5636 5636 5636 5636 5636 5636 5636 5636 5635 5635 5634 5634 5634 5634 5633 5633 5632 5632 5631 5631 5630 5628 5627 5625 5624 5622 5621 5619 5617 5616
5614 5615 5616 5617 5618 5618 5618 5619 5619 5619 5620 5621 5621 5622 5622 5622 5622 5621 5621 5621 5621 5620 5620 5619 5619 5619 5619 5619 5618 5618 5617 5617 5617 5616 5615 5614 5612 5611 5609 5608 5607 5605 5604
5601 5602 5602 5603 5604 5604 5604 5604 5604 5605 5605 5606 5606 5607 5607 5607 5606 5606 5606 5606 5606 5605 5604 5603 5604 5604 5603 5603 5603 5603 5602 5602 5603 5602 5601 5601 5599 5598 5597 5596 5595 5593 5592
5587 5587 5588 5588 5589 5589 5589 5589 5589 5589 5590 5590 5591 5591 5591 5591 5591 5590 5590 5590 5590 5589 5588 5587 5587 5587 5587 5587 5587 5587 5587 5587 5588 5588 5587 5586 5586 5585 5584 5583 5582 5581 5579
5572 5572 5573 5573 5573 5574 5574 5573 5573 5573 5574 5575 5575 5575 5575 5574 5574 5573 5573 5573 5574 5573 5572 5572 5571 5571 5571 5571 5571 5571 5572 5572 5572 5573 5572 5572 5571 5571 5571 5571 5569 5568 5567